Find SDA-1679

NORAD ID: 65989 Int'l Des: 2025-230 Owner: SDA Country: US operational
LEOCIRCULARPOLAR

Live-Position

3D-Globus wird geladen...

Über SDA-1679

Beschreibung wird geladen...

Nächste Überflüge

Passes for default location (London). Set your location on the main map for personalized predictions.

Höhenverlauf

Loading altitude history...

Zweizeiliger Elementsatz

1 65989U 25230R 26135.27461548 .00000131 00000-0 10542-3 0 9993
2 65989 81.3030 242.1304 0001898 298.0602 62.0363 13.84855101 29268
Epoch: 15. Mai 2026 • Age: 23 hours

Aktueller Status

Höhe 950.9 km
Geschwindigkeit 7.38 km/s
Subsatellitenpunkt 31.65°N, 66.6°W
Startdatum 15. Okt. 2025
Alter 0.5 years
Typ other

Technische Details

Klassifizierung Payload
Masse 400.00 kg
Trockenmasse 400.00 kg
Gesamtmasse 400.00 kg
Länge 0.60 m
Durchmesser 0.40 m
Spannweite 3.60 m
Form Box + panels
Hersteller LMSSD/TERRAN
Bus-Typ LM-T1TL
Phasenstatus In Orbit
Besitzer/Staat SDA/US

Most Searched